Wind_Speed
34 35 36 38 39 40 41 42 42 43 43 44 45 47 47 48 49 50 49 50 51 51 52 52 51 51 52 52 53 53 53 53 53 53 52 52 52 52 52 51 51 50 50
34 36 37 39 40 41 42 43 44 45 45 46 47 48 48 49 50 51 52 53 53 53 54 54 53 53 53 53 54 54 54 53 53 53 53 53 53 53 53 53 54 54 54
35 37 39 40 41 42 43 44 45 46 47 47 48 48 49 50 51 51 52 53 54 54 54 54 53 53 53 53 54 54 54 54 53 53 54 54 53 54 53 54 55 56 56
36 37 39 40 41 43 44 45 46 47 48 48 48 49 49 50 51 52 52 51 51 52 54 54 54 54 54 54 54 54 55 55 55 55 55 56 55 55 55 55 55 56 56
37 38 39 40 42 43 44 45 46 47 47 48 48 49 50 50 51 51 50 50 50 51 52 53 54 54 54 54 54 55 56 56 57 57 56 57 57 56 56 56 56 57 58
38 39 39 40 41 42 43 44 45 46 47 47 48 49 49 49 50 50 50 50 51 51 52 52 54 55 54 55 55 56 55 56 57 58 58 58 58 58 58 57 57 57 57
38 38 39 39 40 41 42 44 45 46 47 48 49 49 49 49 49 49 49 50 50 52 53 53 53 54 55 55 55 56 55 55 56 57 58 58 58 59 59 58 57 57 57
38 38 39 40 41 41 42 43 44 45 47 48 48 48 48 49 49 49 49 50 50 50 52 52 53 54 54 54 54 54 55 55 55 55 56 56 56 57 57 57 57 57 57
39 39 39 40 41 42 43 43 44 45 46 47 47 47 47 48 49 49 50 50 49 50 51 52 53 53 54 54 54 54 54 54 54 55 55 56 55 55 56 56 57 58 57
39 40 40 42 42 43 43 44 45 45 46 46 46 46 46 46 47 48 49 49 49 50 51 51 52 53 53 53 53 53 54 53 53 54 54 55 55 55 55 56 56 57 58
40 40 41 42 43 43 44 44 44 45 45 45 45 44 44 45 46 47 47 49 49 50 51 50 51 50 51 52 52 52 53 54 53 53 54 54 54 54 54 55 56 56 57
41 41 42 43 44 44 44 44 44 44 44 44 44 44 44 44 45 46 46 48 48 48 48 49 48 48 49 50 50 51 51 53 53 53 53 53 53 53 53 54 54 55 56
42 42 42 43 44 45 44 43 43 43 42 43 43 44 44 45 45 45 45 47 47 47 47 47 46 46 47 48 49 49 50 51 53 53 53 53 53 53 52 53 53 54 55
43 43 43 44 44 45 44 43 42 42 42 42 43 43 44 44 44 45 45 45 45 45 46 45 45 45 45 46 47 47 48 50 52 53 54 54 54 54 54 54 54 54 54
44 44 43 44 45 44 44 43 42 42 42 42 42 43 43 43 44 44 44 44 44 43 43 43 44 44 44 45 46 46 47 48 50 51 53 53 54 55 55 55 55 54 53
44 45 44 44 44 44 43 42 42 43 43 42 41 42 42 42 43 43 43 42 41 41 41 42 43 43 44 44 45 44 45 46 48 49 51 53 53 53 54 55 55 55 54
44 45 45 44 44 43 42 42 42 42 41 41 41 40 40 41 41 40 40 39 40 40 40 41 42 43 43 44 44 44 44 44 45 47 49 51 52 52 53 54 54 54 54
44 44 44 43 43 42 42 42 41 40 41 40 40 39 39 39 38 38 38 39 39 39 40 40 40 41 42 43 44 44 44 44 44 45 47 49 51 52 52 53 54 53 53
43 43 43 43 42 42 42 41 40 40 40 40 39 39 38 38 38 38 38 38 39 39 39 39 40 39 40 41 43 43 43 43 43 43 45 46 48 50 51 52 52 53 52
43 43 43 43 42 41 40 40 39 39 39 39 38 38 38 38 37 37 38 38 38 38 38 38 38 38 38 39 40 41 41 41 42 42 43 44 45 47 49 50 50 50 51
43 43 43 43 42 41 39 39 38 38 38 37 37 37 38 38 38 38 38 38 38 38 37 37 37 36 36 37 38 38 38 39 39 41 42 42 43 44 45 47 48 48 49
42 43 43 42 41 40 39 38 38 38 38 38 38 38 38 38 38 38 37 37 37 36 36 35 34 34 33 33 33 35 36 36 37 38 39 41 42 43 43 44 45 45 46
42 42 41 40 40 39 39 39 38 37 37 37 37 37 37 37 37 36 36 35 35 34 33 33 32 32 31 31 31 32 33 35 36 36 37 38 39 40 41 42 43 43 43
40 40 40 40 39 38 38 38 38 38 37 36 35 35 35 35 35 35 34 33 32 31 31 30 30 30 30 30 31 31 31 32 33 34 34 35 36 37 38 40 41 41 41
39 39 39 38 38 37 38 37 36 35 35 34 33 33 33 32 32 32 32 30 30 29 29 29 29 29 29 29 29 29 29 30 30 31 32 33 33 34 35 37 38 39 40
38 38 37 37 36 36 36 35 34 33 33 32 32 32 32 31 30 29 29 28 28 28 28 27 27 27 28 27 28 28 29 29 29 29 29 30 31 32 33 34 35 36 38
Wind_Direction
279 278 277 276 275 275 275 276 276 276 276 275 275 273 273 271 270 269 269 268 267 265 263 262 261 259 259 260 260 258 258 258 258 257 256 256 256 255 254 252 252 251 251
281 280 279 277 276 276 276 276 276 277 276 276 276 275 274 273 272 271 270 270 269 266 264 262 261 260 259 259 259 258 258 258 258 257 257 256 256 255 254 253 252 251 251
283 281 280 278 277 277 277 277 277 277 278 278 277 276 274 274 273 273 272 270 269 267 265 263 262 261 260 259 258 258 257 257 257 257 257 256 255 255 254 254 253 252 251
286 286 283 282 280 279 277 277 278 278 278 278 278 277 276 275 274 273 272 271 269 267 265 264 262 262 261 260 259 259 258 257 257 257 257 257 256 256 254 254 254 252 252
289 289 288 285 283 281 280 279 279 279 279 279 279 277 276 275 274 273 272 270 269 267 266 264 263 262 261 261 260 259 259 257 257 257 257 257 256 256 256 255 254 253 253
290 291 291 288 286 284 282 280 280 281 281 280 280 279 277 276 275 273 272 270 269 268 267 267 265 264 263 262 261 260 260 258 258 258 258 257 257 257 256 256 254 253 252
292 292 292 290 288 287 285 283 282 281 282 282 281 280 278 276 275 274 273 271 271 270 269 268 268 266 264 263 262 261 260 259 259 258 258 258 257 257 256 257 255 254 253
294 293 293 292 290 289 288 286 284 283 282 282 281 280 278 276 275 275 274 273 272 271 269 269 269 267 265 264 262 261 259 259 258 258 258 257 257 257 256 256 256 254 253
295 295 294 294 292 290 289 288 286 284 283 283 281 280 278 277 276 275 275 274 273 273 271 270 269 268 267 264 262 261 259 258 257 257 257 257 257 257 256 256 255 255 253
296 295 295 295 294 292 290 289 287 285 284 282 282 281 279 278 277 276 275 275 275 274 273 271 270 268 266 264 262 260 258 257 256 256 256 256 256 256 256 256 256 255 255
295 295 295 295 295 293 291 290 289 287 285 283 282 281 281 280 279 278 277 276 276 275 274 273 272 269 266 264 262 260 258 257 257 256 256 256 256 255 255 255 255 255 254
295 296 296 295 295 294 292 291 290 289 286 284 282 281 282 282 282 280 279 278 277 277 275 274 272 269 267 264 262 261 259 258 257 255 255 255 254 254 255 255 255 255 254
295 296 296 295 295 295 293 291 290 290 288 285 284 283 283 283 283 282 281 280 278 277 275 275 272 270 267 264 263 261 260 258 257 255 255 254 254 253 254 254 255 254 254
295 296 296 296 296 296 293 291 291 290 289 287 285 284 284 283 283 283 283 282 279 278 275 274 272 270 268 266 264 263 261 259 257 256 255 254 253 253 253 254 254 255 254
296 297 297 296 296 295 293 291 291 290 290 288 287 286 285 284 284 284 283 282 281 278 276 273 271 270 268 267 266 264 262 260 258 257 255 254 254 254 254 255 255 255 255
296 297 297 296 296 295 293 291 292 292 291 289 287 287 286 286 286 285 283 282 281 279 277 274 272 270 269 268 267 266 264 262 260 258 256 255 254 254 254 255 255 256 256
298 298 298 297 296 295 293 293 294 292 290 289 289 288 288 288 287 285 283 282 281 280 279 277 274 272 270 269 268 267 266 264 261 259 257 255 253 254 254 254 254 255 256
300 300 299 299 298 296 294 294 294 292 291 290 289 289 289 288 287 285 284 283 281 280 279 278 277 274 271 269 268 267 267 265 263 260 258 256 255 254 254 254 254 255 255
300 301 301 300 298 296 295 294 294 293 292 292 291 289 288 288 287 286 285 284 282 281 281 279 278 275 273 271 269 268 267 266 264 262 260 258 256 255 254 254 254 254 255
300 301 301 300 300 298 296 295 294 294 294 293 291 289 288 288 287 287 285 283 282 282 282 281 279 276 274 272 270 269 268 267 266 264 262 260 258 257 255 254 254 254 253
301 301 301 301 301 299 298 297 296 295 294 293 291 290 290 289 287 286 285 284 283 283 282 282 280 278 276 273 271 270 269 268 267 266 263 262 260 259 257 254 254 254 254
302 302 302 302 301 300 299 299 298 296 294 293 292 291 290 289 287 286 284 284 283 283 282 282 280 279 277 275 273 271 270 269 268 267 265 263 261 259 257 256 255 255 254
303 303 303 302 302 301 300 300 299 297 295 294 293 292 290 289 289 287 285 284 283 282 282 280 280 278 277 276 275 273 272 271 270 269 267 265 262 259 256 256 254 253 253
304 304 303 302 302 301 301 301 301 299 297 296 295 293 291 290 289 289 286 283 282 281 281 280 279 277 276 276 276 275 273 272 271 270 269 266 263 260 258 256 255 253 253
305 305 304 303 303 302 302 303 303 302 300 298 297 296 295 293 291 289 286 283 281 280 279 279 279 277 275 275 275 276 274 273 272 271 271 268 265 263 260 257 256 254 253
306 306 306 305 305 304 304 304 304 303 301 299 299 298 297 295 293 291 288 284 280 279 279 280 279 277 276 275 275 275 275 275 273 272 271 269 267 265 262 260 258 256 253
Height
5719 5717 5715 5713 5711 5710 5708 5707 5705 5703 5701 5700 5698 5696 5694 5693 5692 5691 5691 5690 5690 5690 5691 5691 5692 5694 5695 5696 5697 5699 5701 5703 5704 5707 5709 5711 5713 5715 5717 5720 5722 5725 5727
5709 5707 5705 5702 5700 5699 5697 5695 5693 5691 5689 5687 5685 5683 5681 5680 5678 5677 5676 5676 5675 5675 5676 5676 5677 5678 5679 5680 5682 5684 5686 5688 5689 5691 5693 5696 5699 5701 5703 5705 5708 5711 5714
5700 5697 5694 5691 5689 5687 5686 5683 5681 5678 5676 5674 5672 5669 5667 5666 5664 5663 5661 5660 5660 5660 5660 5661 5661 5663 5664 5665 5667 5668 5670 5672 5674 5676 5678 5681 5684 5686 5690 5691 5693 5696 5699
5689 5686 5683 5680 5678 5676 5673 5671 5668 5666 5663 5661 5658 5656 5654 5652 5651 5649 5648 5646 5645 5645 5645 5645 5646 5647 5648 5649 5651 5653 5654 5657 5659 5661 5663 5665 5667 5671 5675 5678 5679 5681 5684
5679 5676 5672 5669 5666 5663 5661 5658 5656 5653 5650 5648 5645 5643 5641 5639 5637 5635 5634 5632 5631 5631 5630 5630 5631 5631 5632 5634 5635 5637 5638 5640 5643 5645 5647 5649 5651 5654 5658 5662 5664 5666 5669
5669 5665 5661 5658 5655 5652 5649 5646 5643 5641 5638 5635 5632 5629 5627 5625 5623 5621 5620 5619 5618 5617 5616 5615 5616 5616 5617 5618 5619 5621 5622 5624 5626 5628 5630 5633 5635 5638 5640 5645 5648 5651 5653
5658 5654 5650 5647 5643 5640 5637 5633 5631 5628 5625 5622 5619 5616 5613 5611 5609 5608 5606 5605 5603 5603 5602 5601 5601 5601 5601 5602 5603 5605 5606 5608 5610 5612 5614 5616 5618 5621 5623 5627 5631 5634 5637
5647 5643 5639 5635 5632 5628 5624 5621 5618 5615 5612 5608 5605 5602 5600 5597 5595 5594 5592 5590 5589 5588 5587 5586 5586 5585 5585 5586 5587 5589 5590 5592 5594 5596 5598 5600 5602 5604 5606 5610 5613 5617 5621
5636 5632 5628 5624 5620 5616 5612 5608 5605 5602 5598 5595 5592 5589 5586 5584 5582 5580 5578 5576 5574 5573 5572 5571 5570 5570 5570 5570 5571 5573 5574 5576 5578 5579 5581 5584 5586 5588 5590 5593 5595 5599 5603
5626 5621 5617 5613 5608 5604 5600 5596 5592 5589 5585 5582 5578 5575 5573 5570 5568 5566 5564 5562 5560 5558 5557 5556 5555 5555 5555 5555 5555 5557 5558 5560 5561 5563 5565 5568 5570 5572 5574 5577 5579 5582 5585
5615 5611 5606 5601 5597 5592 5588 5584 5580 5576 5572 5568 5565 5562 5560 5557 5554 5552 5550 5548 5546 5544 5542 5541 5540 5539 5539 5539 5540 5541 5542 5544 5546 5548 5550 5552 5554 5557 5559 5561 5563 5566 5569
5604 5600 5595 5590 5585 5580 5576 5571 5567 5563 5559 5555 5552 5550 5547 5544 5541 5539 5536 5534 5532 5529 5527 5526 5525 5525 5524 5525 5525 5526 5527 5528 5530 5532 5534 5537 5539 5541 5544 5546 5548 5550 5553
5593 5588 5584 5579 5574 5568 5564 5559 5555 5550 5546 5543 5540 5537 5534 5531 5528 5525 5523 5520 5518 5515 5513 5512 5511 5511 5510 5510 5511 5511 5512 5513 5515 5517 5519 5521 5523 5526 5528 5530 5533 5535 5537
5581 5577 5572 5567 5562 5557 5552 5547 5543 5538 5534 5530 5527 5524 5521 5518 5515 5512 5509 5507 5504 5502 5500 5499 5498 5497 5497 5496 5496 5497 5497 5498 5500 5501 5503 5506 5508 5510 5513 5515 5517 5519 5522
5569 5565 5560 5555 5550 5545 5540 5535 5531 5527 5522 5519 5515 5512 5508 5505 5502 5499 5496 5493 5491 5489 5487 5486 5485 5484 5483 5483 5482 5482 5483 5484 5485 5486 5488 5490 5492 5494 5497 5499 5502 5504 5506
5558 5553 5548 5543 5538 5533 5528 5524 5519 5515 5510 5506 5503 5499 5496 5492 5489 5486 5483 5480 5478 5476 5475 5473 5472 5471 5470 5470 5469 5468 5468 5469 5470 5471 5473 5474 5477 5479 5481 5484 5486 5488 5491
5546 5541 5536 5531 5526 5521 5517 5512 5507 5503 5499 5495 5491 5487 5484 5480 5477 5474 5471 5469 5467 5464 5462 5461 5459 5459 5458 5457 5456 5455 5455 5455 5456 5457 5458 5459 5462 5463 5466 5468 5470 5473 5475
5534 5529 5524 5519 5514 5509 5504 5500 5495 5491 5487 5483 5479 5475 5472 5468 5465 5462 5460 5457 5455 5453 5451 5449 5447 5446 5445 5443 5442 5442 5441 5442 5442 5442 5443 5445 5446 5448 5450 5452 5455 5457 5460
5523 5518 5513 5508 5503 5498 5493 5488 5484 5479 5475 5471 5467 5463 5460 5457 5454 5451 5448 5446 5443 5441 5438 5436 5435 5433 5432 5430 5429 5428 5428 5428 5428 5429 5429 5430 5432 5433 5435 5437 5440 5443 5445
5512 5507 5502 5497 5492 5486 5481 5477 5472 5468 5464 5459 5456 5452 5449 5446 5443 5440 5437 5434 5431 5429 5427 5424 5422 5421 5419 5418 5416 5415 5415 5415 5416 5416 5416 5417 5417 5418 5419 5421 5423 5427 5430
5501 5496 5491 5485 5480 5475 5470 5466 5461 5457 5452 5448 5444 5441 5437 5434 5431 5428 5425 5422 5420 5417 5415 5413 5410 5409 5407 5406 5404 5403 5402 5402 5403 5403 5403 5403 5403 5404 5405 5406 5409 5412 5414
5490 5485 5480 5474 5469 5464 5460 5455 5450 5446 5441 5437 5433 5429 5425 5422 5419 5416 5413 5410 5408 5405 5403 5401 5399 5397 5396 5394 5393 5392 5391 5390 5390 5390 5390 5390 5390 5391 5392 5393 5396 5398 5399
5479 5474 5469 5463 5458 5453 5449 5444 5439 5435 5430 5426 5421 5417 5413 5410 5407 5404 5401 5399 5396 5394 5392 5390 5388 5387 5385 5384 5383 5382 5381 5380 5379 5379 5378 5378 5378 5378 5379 5381 5383 5384 5386
5469 5463 5458 5453 5448 5443 5438 5433 5429 5424 5419 5415 5411 5407 5403 5399 5396 5393 5390 5388 5386 5384 5382 5380 5379 5377 5375 5374 5373 5372 5371 5369 5368 5368 5367 5366 5366 5366 5367 5369 5370 5372 5374
5458 5453 5447 5442 5437 5432 5428 5423 5418 5414 5409 5405 5401 5397 5393 5389 5386 5382 5380 5377 5376 5374 5373 5371 5370 5368 5367 5365 5364 5362 5361 5360 5359 5358 5357 5356 5356 5356 5356 5357 5358 5360 5362
5448 5443 5437 5432 5427 5422 5418 5413 5409 5404 5400 5396 5391 5387 5383 5380 5376 5373 5370 5368 5367 5365 5364 5362 5360 5359 5358 5356 5355 5353 5352 5350 5349 5348 5347 5347 5346 5346 5346 5346 5347 5349 5350